This demonstration page uses our WeatherBlox Daily Observations layout. Learn more.

Left ArrowRight Arrow

Hourly Observations for May 21, 2015

Temp ( °F °C ) Dew Point ( °F °C ) Humidity (%) Winds ( mph kmh ) Pressure ( in mb ) Visibility ( mi km ) Precip ( " mm )
12:16 am 00:16 Cloudy 46 8 N/A N/A NNE 10 17 30.09 1019 7 11.26538 N/A
12:36 am 00:36 Mostly Cloudy 46 8 N/A N/A NNE 10 17 30.09 1019 7 11.26538 N/A
12:57 am 00:57 Partly Cloudy 46 8 N/A N/A NNE 8 13 30.06 1018 7 11.26538 N/A
1:16 am 01:16 Mostly Cloudy 46 8 N/A N/A NNE 8 13 30.06 1018 7 11.26538 N/A
1:37 am 01:37 Cloudy 46 8 N/A N/A N 9 15 30.06 1018 5 8.0467 N/A
1:56 am 01:56 Cloudy 46 8 N/A N/A N 9 15 30.06 1018 5 8.0467 N/A
2:16 am 02:16 Cloudy 46 8 N/A N/A NNE 7 11 30.06 1018 7 11.26538 N/A
2:36 am 02:36 Cloudy 46 8 N/A N/A N 9 15 30.06 1018 7 11.26538 N/A
2:56 am 02:56 Cloudy 46 8 N/A N/A N 9 15 30.06 1018 7 11.26538 N/A
3:17 am 03:17 Cloudy 46 8 N/A N/A N 9 15 30.06 1018 7 11.26538 N/A
3:36 am 03:36 Cloudy 46 8 N/A N/A N 9 15 30.06 1018 7 11.26538 N/A
3:56 am 03:56 Cloudy 46 8 N/A N/A N 7 11 30.06 1018 7 11.26538 N/A
4:16 am 04:16 Cloudy 46 8 N/A N/A N 7 11 30.06 1018 7 11.26538 N/A
4:36 am 04:36 Mostly Cloudy 46 8 N/A N/A N 9 15 30.09 1019 7 11.26538 N/A
4:56 am 04:56 Cloudy 46 8 N/A N/A N 9 15 30.09 1019 10 16.0934 N/A
5:16 am 05:16 Cloudy 46 8 N/A N/A N 9 15 30.09 1019 10 16.0934 N/A
5:36 am 05:36 Mostly Cloudy 46 8 N/A N/A N 10 17 30.06 1018 7 11.26538 N/A
5:56 am 05:56 Mostly Cloudy 46 8 N/A N/A N 7 11 30.06 1018 7 11.26538 N/A
6:16 am 06:16 Cloudy 46 8 N/A N/A N 7 11 30.09 1019 7 11.26538 N/A
6:36 am 06:36 Cloudy 46 8 N/A N/A N 8 13 30.09 1019 7 11.26538 N/A
6:56 am 06:56 Cloudy 46 8 N/A N/A N 8 13 30.09 1019 7 11.26538 N/A
7:16 am 07:16 Cloudy 46 8 N/A N/A N 8 13 30.09 1019 5 8.0467 N/A
7:36 am 07:36 Cloudy 48 9 N/A N/A N 9 15 30.09 1019 7 11.26538 N/A
7:56 am 07:56 Cloudy 48 9 N/A N/A N 7 11 30.12 1020 7 11.26538 N/A
8:16 am 08:16 Cloudy 48 9 N/A N/A N 8 13 30.12 1020 7 11.26538 N/A
8:36 am 08:36 Cloudy 48 9 48 9 100 100 N 9 15 30.12 1020 7 11.26538 N/A
8:56 am 08:56 Cloudy 48 9 43 6 82 82 N 7 11 30.12 1020 7 11.26538 N/A
9:16 am 09:16 Cloudy 48 9 43 6 82 82 N 9 15 30.12 1020 7 11.26538 N/A
9:36 am 09:36 Mostly Cloudy 48 9 43 6 82 82 N 9 15 30.12 1020 7 11.26538 N/A
9:56 am 09:56 Mostly Cloudy 50 10 41 5 71 71 NNW 10 17 30.12 1020 10 16.0934 N/A
10:16 am 10:16 Mostly Cloudy 50 10 41 5 71 71 N 10 17 30.12 1020 10 16.0934 N/A
10:36 am 10:36 Partly Cloudy 50 10 41 5 71 71 NNW 9 15 30.15 1021 10 16.0934 N/A
10:56 am 10:56 Mostly Cloudy 50 10 41 5 71 71 NNW 9 15 30.15 1021 10 16.0934 N/A
11:17 am 11:17 Mostly Cloudy 50 10 39 4 67 67 N 9 15 30.15 1021 10 16.0934 N/A
11:36 am 11:36 Mostly Cloudy 50 10 36 2 58 58 N 9 15 30.15 1021 10 16.0934 N/A
11:56 am 11:56 Partly Cloudy 52 11 34 1 50 50 N 9 15 30.15 1021 10 16.0934 N/A
12:16 pm 12:16 Partly Cloudy 52 11 34 1 50 50 NNW 10 17 30.15 1021 10 16.0934 N/A
12:36 pm 12:36 Partly Cloudy 52 11 34 1 50 50 NW 12 19 30.15 1021 10 16.0934 N/A
12:56 pm 12:56 Mostly Cloudy 54 12 34 1 47 47 NNW 10 17 30.15 1021 10 16.0934 N/A
1:16 pm 13:16 Partly Cloudy 54 12 32 0 44 44 N 8 13 30.12 1020 10 16.0934 N/A
1:37 pm 13:37 Mostly Cloudy 54 12 32 0 44 44 NW 8 13 30.12 1020 10 16.0934 N/A
1:56 pm 13:56 Cloudy 54 12 34 1 47 47 NW 9 15 30.12 1020 10 16.0934 N/A
2:16 pm 14:16 Mostly Cloudy 55 13 32 0 41 41 NNW 7 11 30.09 1019 10 16.0934 N/A
2:36 pm 14:36 Partly Cloudy 57 14 32 0 39 39 NNW 9 15 30.09 1019 10 16.0934 N/A
2:56 pm 14:56 Mostly Cloudy 55 13 34 1 44 44 WNW 10 17 30.12 1020 10 16.0934 N/A
3:17 pm 15:17 Mostly Cloudy 55 13 32 0 41 41 WNW 9 15 30.12 1020 10 16.0934 N/A
3:36 pm 15:36 Partly Cloudy 57 14 32 0 39 39 NW 8 13 30.12 1020 10 16.0934 N/A
3:56 pm 15:56 Partly Cloudy 57 14 32 0 39 39 NW 8 13 30.12 1020 10 16.0934 N/A
4:16 pm 16:16 Sunny 59 15 32 0 36 36 WNW 8 13 30.12 1020 10 16.0934 N/A
4:36 pm 16:36 Partly Cloudy 61 16 30 -1 31 31 NW 7 11 30.09 1019 10 16.0934 N/A
4:56 pm 16:56 Sunny 61 16 28 -2 29 29 NW 9 15 30.09 1019 10 16.0934 N/A
5:16 pm 17:16 Sunny 63 17 23 -5 22 22 WNW 14 22 30.09 1019 10 16.0934 N/A
5:36 pm 17:36 Sunny 63 17 21 -6 20 20 W 10 17 30.09 1019 10 16.0934 N/A
5:56 pm 17:56 Sunny 63 17 23 -5 22 22 WNW 14 22 30.09 1019 10 16.0934 N/A
6:16 pm 18:16 Sunny 63 17 23 -5 22 22 NW 10 17 30.09 1019 10 16.0934 N/A
6:37 pm 18:37 Sunny 63 17 21 -6 20 20 WNW 13 20 30.09 1019 10 16.0934 N/A
6:56 pm 18:56 Sunny 63 17 21 -6 20 20 NW 12 19 30.09 1019 10 16.0934 N/A
7:16 pm 19:16 Sunny 63 17 21 -6 20 20 WNW 13 20 30.09 1019 10 16.0934 N/A
7:36 pm 19:36 Sunny 63 17 21 -6 20 20 NW 8 13 30.06 1018 10 16.0934 N/A
7:56 pm 19:56 Sunny 61 16 19 -7 20 20 WNW 13 20 30.09 1019 10 16.0934 N/A
8:17 pm 20:17 Sunny 61 16 19 -7 20 20 NW 9 15 30.09 1019 10 16.0934 N/A
8:36 pm 20:36 Sunny 59 15 23 -5 25 25 WNW 8 13 30.09 1019 10 16.0934 N/A
8:56 pm 20:56 Sunny 55 13 27 -3 33 33 W 7 11 30.09 1019 10 16.0934 N/A
9:16 pm 21:16 Clear 54 12 28 -2 38 38 W 5 7 30.12 1020 10 16.0934 N/A
9:36 pm 21:36 Clear 54 12 28 -2 38 38 WSW 5 7 30.12 1020 10 16.0934 N/A
9:57 pm 21:57 Clear 52 11 28 -2 41 41 SW 6 9 30.12 1020 10 16.0934 N/A
10:16 pm 22:16 Clear 52 11 28 -2 41 41 SW 5 7 30.15 1021 10 16.0934 N/A
10:36 pm 22:36 Clear 52 11 30 -1 44 44 SW 6 9 30.15 1021 10 16.0934 N/A
10:56 pm 22:56 Clear 54 12 30 -1 41 41 WSW 9 15 30.15 1021 10 16.0934 N/A
11:16 pm 23:16 Clear 54 12 32 0 44 44 WSW 8 13 30.15 1021 10 16.0934 N/A
11:36 pm 23:36 Clear 54 12 32 0 44 44 WSW 9 15 30.15 1021 10 16.0934 N/A
11:56 pm 23:56 Clear 52 11 32 0 47 47 WSW 9 15 30.15 1021 10 16.0934 N/A

Powered by AerisWeather